Terug naar catalogus

STARLINK-4072

ActiefCommunicatieVLEO
NORAD 52694·PAYLOAD·🇺🇸 United States

Gelanceerd May 18, 2022 vanaf Cape Canaveral Space Force Station

Loading…

Volgende Passages (komende 24 uur)

TLE

VersSource: CelesTrak SupGP

Epoch: Sep 15, 2026, 01:51 UTC

1 52694C 22053AQ  26258.07756944  .00023941  00000+0  68507-3 0  2588
2 52694  53.1583   0.2403 0001164  89.7359  23.0150 15.35382363    16

Volg STARLINK-4072 in realtime met AllMySat

Download on the App Store